[[{"header":{"parameterUnit":"m.s-1","parameterCategory":1,"la1":30.2991,"la2":30.254,"lo1":-89.0895,"lo2":-89.0444,"dy":0.0017,"dx":0.0017,"nx":28,"ny":28,"refTime":"2023-11-04T03:00:00:Z","depth":0,"parameterNumber":2,"parameterNumberName":"U-component_of_WINDS"},"data":[0,0,0,0,0,0,0,0,0,0,0,0,0,0,0,0,0,0,0,0,0,0,0,0,0,0,0,0,0,0,0,0,0,0,0,0,0,0,0,0,0,0,0,0,0,0,0,0,0,0,0,0,0,0,0,0,0,0,-1.3976,-1.3976,0,-1.3976,-1.3976,-1.3976,-1.3899,-1.3897,-1.3895,-1.3893,-1.3896,-1.3897,-1.3899,0,0,0,0,0,0,0,0,0,0,0,0,0,-1.3911,-1.3912,-1.3976,-1.3976,-1.3976,-1.3976,-1.3976,-1.3976,-1.3899,-1.3897,-1.3894,-1.3892,-1.3895,-1.3897,-1.39,0,0,0,0,0,0,0,0,0,0,0,0,0,-1.3928,-1.3913,-1.3976,-1.3938,-1.3934,-1.3976,-1.3976,-1.3976,-1.39,-1.3897,-1.3894,-1.3891,-1.3894,-1.3897,-1.39,-1.3979,0,0,-1.3909,-1.391,0,0,0,0,0,0,0,0,-1.3927,-1.393,-1.3943,-1.394,-1.3936,-1.3934,-1.3954,-1.3977,-1.3901,-1.3913,-1.3893,-1.3889,-1.3911,-1.3912,-1.3919,-1.3979,-1.398,-1.3909,-1.3911,-1.3912,-1.3913,0,0,0,0,0,0,0,-1.3926,-1.393,-1.3976,-1.3944,-1.3939,-1.3921,-1.392,-1.3958,-1.3929,-1.3912,-1.3906,-1.3907,-1.3909,-1.3917,-1.3919,-1.398,-1.3909,-1.3912,-1.3914,-1.3915,-1.4105,-1.4108,0,0,0,0,0,0,-1.393,-1.3929,-1.3976,-1.3976,-1.3924,-1.3924,-1.3923,-1.3938,-1.3929,-1.3924,-1.391,-1.3903,-1.3913,-1.3915,-1.3919,-1.4011,-1.3912,-1.3915,-1.3917,-1.4102,-1.4105,-1.4109,0,0,0,0,0,0,-1.3928,-1.3934,-1.3976,-1.3951,-1.3955,-1.3929,-1.3946,-1.394,-1.3948,-1.3927,-1.3922,-1.3923,-1.3911,-1.3914,-1.3965,-1.401,-1.3916,-1.3919,-1.4098,-1.4103,-1.4107,-1.4197,0,0,0,0,0,0,-1.3927,-1.3935,-1.3964,-1.3952,-1.3957,-1.4022,-1.3949,-1.3942,-1.3953,-1.3945,-1.3938,-1.3934,-1.3909,-1.3961,-1.3968,-1.4013,-1.3921,-1.4093,-1.41,-1.4106,-1.419,-1.4205,-1.4217,0,0,0,0,0,-1.3925,-1.399,-1.3966,-1.3972,-1.3993,-1.4025,-1.4027,-1.3996,-1.3957,-1.3987,-1.3973,-1.3934,-1.4004,-1.3966,-1.3974,-1.402,-1.409,-1.4098,-1.4105,-1.4184,-1.4202,-1.4217,0,0,0,0,0,0,-1.4009,-1.3988,-1.3961,-1.4024,-1.4027,-1.4012,-1.4049,-1.4016,-1.403,-1.4022,-1.3983,-1.3982,-1.4039,-1.4034,-1.3993,-1.4096,-1.404,-1.4049,-1.4098,-1.4115,-1.4128,-1.4129,-1.3924,0,0,0,0,0,-1.4035,-1.4062,-1.4042,-1.41,-1.4102,-1.4075,-1.4088,-1.4063,-1.4065,-1.4066,-1.4056,-1.4059,-1.4082,-1.4097,-1.4117,-1.4188,-1.4186,-1.4224,-1.4238,-1.4249,-1.4258,-1.4296,-1.4312,-1.4133,-1.4133,-1.4133,0,0,-1.4089,-1.4081,-1.4101,-1.4117,-1.4116,-1.4145,-1.4077,-1.4111,-1.4132,-1.4071,-1.4118,-1.4111,-1.4112,-1.4173,-1.42,-1.4171,-1.4306,-1.4258,-1.4267,-1.427,-1.4305,-1.4322,-1.4337,-1.4138,-1.4137,-1.4137,0,0,-1.4203,-1.4199,-1.4247,-1.4247,-1.4246,-1.4227,-1.4239,-1.4228,-1.4221,-1.4267,-1.4221,-1.4246,-1.4286,-1.4288,-1.4295,-1.4408,-1.4374,-1.4416,-1.4487,-1.4524,-1.4539,-1.4551,-1.4593,-1.4608,-1.4424,-1.4425,-1.4425,0,-1.4271,-1.4313,-1.4276,-1.4313,-1.4322,-1.4265,-1.4314,-1.4316,-1.4322,-1.433,-1.4297,-1.4345,-1.4341,-1.4403,-1.443,-1.4437,-1.445,-1.4417,-1.4539,-1.4551,-1.4562,-1.4602,-1.4617,-1.443,-1.4429,-1.4429,-1.4428,0,-1.4397,-1.4426,-1.4465,-1.4471,-1.4484,-1.4527,-1.4496,-1.4514,-1.4488,-1.4473,-1.452,-1.4514,-1.4531,-1.4543,-1.4519,-1.4602,-1.4584,-1.4546,-1.4489,-1.4585,-1.4622,-1.4636,-1.4437,-1.4435,-1.4434,-1.4433,0,0,-1.4566,-1.455,-1.4565,-1.4567,-1.4561,-1.4583,-1.4623,-1.4639,-1.4655,-1.466,-1.4694,-1.4727,-1.4692,-1.4699,-1.4674,-1.4707,-1.4798,-1.4664,-1.4664,-1.4691,-1.489,-1.492,-1.4938,-1.4774,-1.4776,-1.4779,-1.489,0,-1.4678,-1.4744,-1.4712,-1.4783,-1.481,-1.4756,-1.4791,-1.4792,-1.4778,-1.48,-1.4785,-1.481,-1.476,-1.4765,-1.4794,-1.4781,-1.4838,-1.4772,-1.4806,-1.4807,-1.4809,-1.4957,-1.4989,-1.5094,-1.4904,-1.4906,-1.4908,0,-1.4817,-1.4827,-1.4901,-1.4889,-1.49,-1.4931,-1.4943,-1.4964,-1.4963,-1.4951,-1.4959,-1.4925,-1.4964,-1.4906,-1.4959,-1.4915,-1.4927,-1.4922,-1.4925,-1.4929,-1.4865,-1.4966,-1.5127,-1.5144,-1.493,-1.4928,-1.4926,0,-1.4935,-1.4967,-1.5015,-1.5018,-1.5006,-1.5029,-1.5025,-1.5021,-1.5033,-1.5043,-1.505,-1.5065,-1.5074,-1.5086,-1.5058,-1.5018,-1.5116,-1.5055,-1.5108,-1.5109,-1.5133,-1.5132,-1.53,-1.5137,-1.5137,-1.5137,-1.5136,0,-1.5064,-1.5112,-1.5068,-1.5098,-1.515,-1.5111,-1.5164,-1.5154,-1.515,-1.5178,-1.5132,-1.5159,-1.5119,-1.5142,-1.512,-1.5168,-1.5172,-1.5164,-1.5158,-1.5169,-1.5171,-1.5178,-1.5171,-1.5141,-1.514,-1.5139,-1.5138,0,-1.5206,-1.5178,-1.5227,-1.5211,-1.5207,-1.5247,-1.5232,-1.526,-1.5242,-1.5277,-1.5283,-1.5257,-1.5281,-1.5254,-1.5276,-1.5262,-1.5327,-1.5309,-1.5327,-1.5323,-1.5378,-1.5374,-1.5558,-1.5581,-1.5402,-1.5404,-1.5405,0,-1.5291,-1.5326,-1.5313,-1.5327,-1.5326,-1.535,-1.5361,-1.5324,-1.5337,-1.5338,-1.5366,-1.5386,-1.5401,-1.5443,-1.5426,-1.5443,-1.5426,-1.549,-1.5429,-1.5439,-1.5429,-1.5428,-1.5432,-1.5503,-1.5505,-1.5507,-1.5508,0,-1.5445,-1.543,-1.5447,-1.546,-1.5474,-1.5482,-1.5487,-1.5502,-1.5463,-1.5481,-1.5505,-1.5516,-1.5539,-1.556,-1.5572,-1.5568,-1.5533,-1.5527,-1.554,-1.5553,-1.5563,-1.556,-1.5363,-1.5524,-1.5522,-1.5521,-1.552,-1.552,-1.5562,-1.5591,-1.5586,-1.5607,-1.5606,-1.5612,-1.5636,-1.5621,-1.564,-1.5656,-1.5632,-1.5663,-1.566,-1.5672,-1.5673,-1.5696,-1.5669,-1.5689,-1.5694,-1.57,-1.5708,-1.5558,-1.5698,-1.5698,-1.5697,-1.5697,-1.5696,0,-1.5716,-1.5709,-1.5729,-1.5736,-1.5753,-1.5715,-1.5719,-1.5735,-1.5762,-1.5763,-1.5777,-1.5805,-1.5825,-1.5809,-1.5826,-1.5848,-1.5832,-1.5854,-1.5853,-1.5853,-1.5731,-1.5718,-1.5867,-1.5867,-1.5867,-1.5866,-1.5866,-1.5866,-1.5798,-1.5845,-1.5828,-1.5874,-1.5867,-1.5896,-1.5901,-1.5906,-1.5906,-1.5939,-1.5955,-1.5943,-1.5937,-1.5953,-1.597,-1.5965,-1.5974,-1.6002,-1.5991,-1.5878,-1.5861,-1.5846,-1.5834,-1.6004,-1.6004,-1.6111,-1.6112,-1.6113]},{"header":{"parameterUnit":"m.s-1","parameterCategory":1,"la1":30.2991,"la2":30.254,"lo1":-89.0895,"lo2":-89.0444,"dy":0.0017,"dx":0.0017,"nx":28,"ny":28,"refTime":"2023-11-04T03:00:00:Z","depth":0,"parameterNumber":3,"parameterNumberName":"V-component_of_WINDS"},"data":[0,0,0,0,0,0,0,0,0,0,0,0,0,0,0,0,0,0,0,0,0,0,0,0,0,0,0,0,0,0,0,0,0,0,0,0,0,0,0,0,0,0,0,0,0,0,0,0,0,0,0,0,0,0,0,0,0,0,0.3263,0.3262,0,0.3161,0.316,0.3158,0.312,0.3121,0.3121,0.3121,0.3015,0.3012,0.3009,0,0,0,0,0,0,0,0,0,0,0,0,0,0.3426,0.3423,0.3263,0.3262,0.3261,0.3161,0.316,0.3158,0.312,0.3121,0.3121,0.3121,0.3016,0.3013,0.3009,0,0,0,0,0,0,0,0,0,0,0,0,0,0.3342,0.3422,0.3263,0.323,0.3226,0.3161,0.3159,0.3158,0.312,0.3121,0.3121,0.3122,0.3018,0.3013,0.3008,0.297,0,0,0.2994,0.2992,0,0,0,0,0,0,0,0,0.3347,0.3336,0.3236,0.3232,0.3227,0.3154,0.3178,0.3095,0.312,0.316,0.3121,0.3122,0.3061,0.3053,0.3032,0.2965,0.296,0.2994,0.2991,0.2989,0.2988,0,0,0,0,0,0,0,0.3353,0.3341,0.3223,0.3234,0.3229,0.322,0.3208,0.3162,0.3109,0.3157,0.3154,0.3142,0.3059,0.3037,0.303,0.2959,0.2994,0.299,0.2987,0.2985,0.2854,0.2854,0,0,0,0,0,0,0.3364,0.3346,0.3226,0.322,0.329,0.3216,0.3204,0.3177,0.3109,0.31,0.3142,0.3141,0.3045,0.3035,0.3026,0.2976,0.2989,0.2985,0.2982,0.2855,0.2854,0.2854,0,0,0,0,0,0,0.3368,0.3354,0.323,0.3282,0.3265,0.3213,0.3183,0.3175,0.3153,0.3098,0.3089,0.3129,0.3045,0.3032,0.2984,0.2971,0.2982,0.2978,0.2856,0.2855,0.2854,0.2875,0,0,0,0,0,0,0.3373,0.3356,0.334,0.3282,0.3263,0.319,0.3182,0.3172,0.3145,0.3143,0.3084,0.3075,0.3044,0.2991,0.2979,0.2965,0.2975,0.2857,0.2855,0.2854,0.2875,0.2875,0.2875,0,0,0,0,0,0.3379,0.335,0.334,0.3325,0.3242,0.3189,0.3178,0.3144,0.3144,0.3128,0.3093,0.3077,0.2975,0.2987,0.2973,0.2957,0.2857,0.2856,0.2854,0.2876,0.2875,0.2875,0,0,0,0,0,0,0.3408,0.3342,0.3329,0.3281,0.3241,0.3183,0.3162,0.3145,0.3104,0.3103,0.3062,0.305,0.3004,0.2976,0.299,0.2916,0.2915,0.2911,0.2936,0.2935,0.2935,0.2942,0.2971,0,0,0,0,0,0.3409,0.3371,0.3316,0.3278,0.3259,0.3214,0.319,0.3167,0.3124,0.3107,0.3068,0.3027,0.2986,0.2959,0.2918,0.2872,0.2858,0.2855,0.2854,0.2854,0.285,0.2824,0.2821,0.2849,0.2849,0.2849,0,0,0.341,0.3369,0.3348,0.3283,0.3249,0.3211,0.32,0.316,0.3131,0.31,0.3052,0.3023,0.2974,0.2927,0.2904,0.2902,0.284,0.2852,0.2853,0.2849,0.2822,0.2819,0.2817,0.2848,0.2848,0.2848,0,0,0.3392,0.3358,0.3323,0.329,0.3239,0.321,0.3202,0.3146,0.3126,0.3077,0.3053,0.3019,0.2949,0.2915,0.2889,0.286,0.2843,0.2848,0.2846,0.282,0.2818,0.2816,0.2805,0.2801,0.2845,0.2845,0.2845,0,0.3399,0.3341,0.3307,0.3268,0.324,0.3212,0.3176,0.3146,0.3084,0.3066,0.3065,0.2977,0.2942,0.2886,0.2879,0.2859,0.2848,0.2853,0.2821,0.2819,0.2816,0.2805,0.2801,0.2846,0.2846,0.2846,0.2846,0,0.3352,0.3313,0.329,0.3232,0.3202,0.3166,0.3126,0.31,0.308,0.3051,0.3002,0.296,0.291,0.2895,0.2876,0.2837,0.2837,0.2829,0.2827,0.2815,0.2804,0.2799,0.2847,0.2847,0.2846,0.2846,0,0,0.3347,0.3272,0.3265,0.3238,0.3182,0.315,0.3112,0.3064,0.3042,0.3002,0.2968,0.2911,0.2904,0.2874,0.2851,0.2828,0.2808,0.2823,0.2821,0.2821,0.2761,0.2766,0.2762,0.2797,0.2796,0.2795,0.2765,0,0.3321,0.3252,0.3221,0.3166,0.3128,0.3102,0.3069,0.3031,0.3003,0.2967,0.2937,0.2896,0.289,0.2872,0.2849,0.2815,0.2795,0.2817,0.2765,0.2763,0.2776,0.2756,0.2761,0.2734,0.2761,0.276,0.2759,0,0.328,0.324,0.3181,0.313,0.3113,0.3084,0.3037,0.3004,0.296,0.2942,0.291,0.2888,0.2847,0.2849,0.2793,0.2808,0.2786,0.2766,0.2764,0.2756,0.2759,0.2747,0.2725,0.2721,0.2752,0.2753,0.2754,0,0.3281,0.3213,0.3169,0.3147,0.3086,0.3066,0.304,0.2997,0.297,0.293,0.2912,0.2868,0.2843,0.2809,0.2776,0.2781,0.2722,0.2722,0.2705,0.2705,0.2691,0.2692,0.2665,0.268,0.268,0.268,0.268,0,0.3254,0.3218,0.3168,0.3141,0.3101,0.3066,0.3028,0.2999,0.2962,0.2928,0.2903,0.2873,0.2831,0.2796,0.277,0.2726,0.2716,0.2699,0.2692,0.27,0.2702,0.2683,0.2683,0.2679,0.2679,0.268,0.268,0,0.3247,0.3212,0.3162,0.3109,0.3095,0.3068,0.3022,0.2995,0.2967,0.2925,0.2913,0.2869,0.2826,0.279,0.2733,0.2715,0.267,0.2663,0.2684,0.268,0.2665,0.2666,0.2622,0.2614,0.2637,0.2637,0.2637,0,0.323,0.3203,0.3147,0.3123,0.3098,0.306,0.3032,0.2998,0.297,0.292,0.2898,0.2854,0.2815,0.2748,0.271,0.2667,0.2657,0.2645,0.265,0.2659,0.2655,0.2657,0.2653,0.2644,0.2644,0.2644,0.2644,0,0.3205,0.3189,0.3151,0.3107,0.3076,0.304,0.3003,0.2985,0.2943,0.2914,0.287,0.284,0.2783,0.2738,0.2691,0.2664,0.2646,0.2643,0.2636,0.2643,0.2656,0.2648,0.2681,0.2643,0.2643,0.2643,0.2643,0.2643,0.3191,0.3166,0.3123,0.3081,0.305,0.3017,0.2988,0.2958,0.292,0.2871,0.2853,0.2807,0.2765,0.27,0.2673,0.2637,0.2635,0.2626,0.2623,0.2621,0.2621,0.2664,0.2629,0.2629,0.2629,0.2629,0.2628,0,0.3163,0.3135,0.3098,0.3047,0.3015,0.3003,0.2962,0.2935,0.2895,0.2858,0.2822,0.2771,0.2728,0.2688,0.2644,0.2622,0.2613,0.2612,0.2612,0.2606,0.2627,0.2636,0.262,0.262,0.262,0.262,0.262,0.262,0.3145,0.3101,0.308,0.3021,0.2992,0.2948,0.2925,0.2894,0.2864,0.2809,0.2773,0.2748,0.271,0.2662,0.2623,0.2612,0.2596,0.2596,0.2583,0.2603,0.2604,0.2605,0.2614,0.2593,0.2593,0.2565,0.2565,0.2565]}]]